Regional Weather Roundup
Issued by NWS

Home | Current Version | Previous Version | Graphics & Text | Print | Product List | Glossary On
Versions: 1 2 3 4 5 6 7 8 9 10 11 12 13 14 15 16 17 18 19 20 21 22 23 24 25 26 27 28 29 30 31 32 33 34 35 36 37 38 39 40 41 42 43 44 45 46 47 48 49 50
000
ASUS43 KMKX 231500
RWRWI

WISCONSIN REGIONAL WEATHER ROUNDUP
NATIONAL WEATHER SERVICE MILWAUKEE/SULLIVAN WI
1000 AM CDT SUN APR 23 2017

NOTE: "FAIR" INDICATES FEW OR NO CLOUDS BELOW 12,000 FEET WITH NO
SIGNIFICANT WEATHER AND/OR OBSTRUCTIONS TO VISIBILITY.

WIZ001-002-006>008-014>016-023>028-231600-
NORTHWEST WISCONSIN

CITY           SKY/WX    TMP DP  RH WIND       PRES   REMARKS
SUPERIOR ARPT  FLURRIES  34  33  96 NE13G21   30.22S WCI  25
ASHLAND        CLOUDY    36  33  89 NE14      30.21F WCI  27
HAYWARD        CLOUDY    38  32  79 NE12      30.16S WCI  30
SIREN          CLOUDY    40  35  83 NE9       30.15F WCI  33
CUMBERLAND     CLOUDY    43  36  75 NE12      30.12S
RICE LAKE      CLOUDY    48  39  69 N14       30.13S
CHETEK         CLOUDY    49  39  68 NE9       30.11F
LADYSMITH      CLOUDY    46  38  74 NE10      30.14S
EAU CLAIRE     NOT AVBL
MENOMONIE      SUNNY     53  39  60 NE7       30.10S
NEW RICHMOND   SUNNY     52  39  61 NE9       30.11R
OSCEOLA        PTSUNNY   51  41  68 NE10      30.14S
$$

WIZ003>005-009-010-017-018-231600-
NORTH CENTRAL WISCONSIN

CITY           SKY/WX    TMP DP  RH WIND       PRES   REMARKS
MANITOWISH WTR CLOUDY    33  33 100 NE8       30.15F WCI  26
ARBOR VITAE    LGT SNOW  37  35  93 N3        30.15R VSB 1
WOODRUFF       LGT SNOW  37  35  93 N3        30.15R VSB 1
RHINELANDER    CLOUDY    42  36  79 N9        30.14R
EAGLE RIVER    LGT SNOW  34  30  86 NE9       30.15S WCI  26
LAND O LAKES   LGT SNOW  33  32  96 CALM      30.17S
PHILLIPS       CLOUDY    38  36  94 NE13      30.12F WCI  30
TOMAHAWK       CLOUDY    44  38  79 NE6       30.13R
MEDFORD        SUNNY     49  40  69 N10       30.10R
MERRILL        SUNNY     51  40  67 NE8       30.10S
$$

WIZ029-030-035-036-043>047-231600-
CENTRAL WISCONSIN

CITY           SKY/WX    TMP DP  RH WIND       PRES   REMARKS
WAUSAU         SUNNY     54  38  54 N6        30.08R
MOSINEE        MOSUNNY   55  37  50 NW7       30.09S
MARSHFIELD     SUNNY     58  39  49 NW9       30.07S
STEVENS POINT  SUNNY     56  35  46 W6        30.08F
WAUPACA        SUNNY     62  34  34 W8        30.09S
WAUTOMA        SUNNY     64  36  35 W13       30.09S
WISC RAPIDS    SUNNY     61  37  41 VRB6      30.09F
CAMP DOUGLAS   NOT AVBL
$$

WIZ011>013-019>022-031-037>040-048>050-231600-
NORTHEAST WISCONSIN

CITY           SKY/WX    TMP DP  RH WIND       PRES   REMARKS
ANTIGO         SUNNY     50  38  63 N12       30.10R
SHAWANO        SUNNY     55  39  53 NE12      30.11R
OCONTO         MOSUNNY   45  36  72 E10G17    30.14R
STURGEON BAY   NOT AVBL
GREEN BAY      SUNNY     48  43  82 NE18      30.12R
MANITOWOC      SUNNY     61  36  39 N13       30.11R
APPLETON       MOSUNNY   59  32  36 NW9       30.08R
CLINTONVILLE   SUNNY     57  34  41 CALM      30.09S
OSHKOSH        SUNNY     63  38  39 NW10      30.09R
$$

WIZ032>034-041-042-053>061-231600-
SOUTHWEST WISCONSIN

CITY           SKY/WX    TMP DP  RH WIND       PRES   REMARKS
LA CROSSE      SUNNY     62  39  42 VRB3      30.10S
SPARTA         SUNNY     59  39  46 W6        30.11S
VIROQUA        SUNNY     58  35  41 W6        30.11S
BOSCOBEL       SUNNY     62  36  37 SW6       30.12F
PRAIRIE DU CHI SUNNY     58  34  41 CALM      30.13S
PLATTEVILLE    SUNNY     58  35  41 W8        30.14F
$$

WIZ056-057-062-063-064-067-068-231600-
SOUTH CENTRAL WISCONSIN

CITY           SKY/WX    TMP DP  RH WIND       PRES   REMARKS
REEDSBURG      SUNNY     61  38  42 W9        30.10F
BARABOO/DELLS  SUNNY     61  33  35 W8        30.10F
LONE ROCK      NOT AVBL
MINERAL POINT  SUNNY     59  32  36 W9        30.13F
MADISON        MOSUNNY   61  33  35 VRB5      30.11F
MIDDLETON      SUNNY     62  35  36 W12       30.12F
WATERTOWN      SUNNY     59  37  43 W7        30.11F
MONROE         SUNNY     57  30  35 W13       30.13F
JANESVILLE     SUNNY     61  32  33 W7        30.13S
$$

WIZ051-052-058>065-066-070>072-231600-
SOUTHEAST WISCONSIN

CITY           SKY/WX    TMP DP  RH WIND       PRES   REMARKS
MILWAUKEE      MOSUNNY   63  29  27 VRB7      30.12F
WAUKESHA       SUNNY     59  30  33 W5        30.13F
MILWAUKEE/TIMM SUNNY     61  27  27 W9        30.12F
RACINE         SUNNY     60  32  34 W8        30.14S
KENOSHA        SUNNY     61  33  35 W8        30.13S
FOND DU LAC    SUNNY     61  37  41 SW9       30.09F
SHEBOYGAN      SUNNY     63  37  38 W7        30.09F
WEST BEND      SUNNY     59  32  36 W10       30.10F
JUNEAU         SUNNY     56  38  51 SW7       30.12F
$$

LSZ147-162-231600-
LAKE SUPERIOR

STATION/POSITION TIME  TEMP    WIND        PRES    WAVE
                       AIR SEA DIR/SP/G            HT/PER
                 (UTC) (F)     (DEG/KT/KT) (MB)    (FT/S)
DEVILS ISLAND    1400   32      60/ 10/ 11 1024.7S
PORT WING        1340   34      50/ 15/ 21 1023.7R
SAXON HARBOR     1440   35      50/ 17/ 20 1022.4F
$$

LMZ867-665-643>646-231600-
LAKE MICHIGAN

STATION/POSITION TIME  TEMP    WIND        PRES    WAVE
                       AIR SEA DIR/SP/G            HT/PER
                 (UTC) (F)     (DEG/KT/KT) (MB)    (FT/S)
CHAMBERS ISLAND  1440   39      10/ 16/ 18 1021.0R
N MID LAKE BUOY  1350   38 37   20/ 16/ 17 1021.6R   2/ 3
NORTHPORT PIER   1440   38     360/ 13/ 17 1021.3R
KEWAUNEE LAKESHO 1430   42      40/ 16/ 21 1019.7R
SHEBOYGAN LAKESH 1400   58     250/  9/ 11 1019.0S
PORT WASHINGTON  1440   63     260/  7/ 11 1020.0F
MILWAUKEE LAKESH 1430   59     280/  8/ 10   N/A
KENOSHA   LAKESH 1400   56     260/  9/ 11 1020.3
$$

TC  - TEMPERATURE IN CELSIUS
VSB - VISIBILITY IN STATUTE MILES
WCI - WIND CHILL INDEX
HX  - HEAT INDEX





USA.gov is the U.S. government's official web portal to all federal, state and local government web resources and services.